DW8131 Weather Reports


time (UTC)temp
C
wind
direction
speed
KPH
gust
KPH
rain 1hr
cm
rain 24hr
cm
rain mn
cm
humidity
%
barometer
mb
20260507200022 9 317 6.4 0.0 0.00 0.00 0.00 61 1018.5
20260507194527 9 5 8.0 0.0 0.00 0.00 0.00 60 1018.3
20260507193021 9 331 8.0 0.0 0.00 0.00 0.00 59 1018.2
20260507191521 10 319 8.0 0.0 0.00 0.00 0.00 58 1018.1
20260507190020 10 342 9.7 0.0 0.00 0.00 0.00 56 1017.8
20260507184521 10 13 8.0 0.0 0.00 0.00 0.00 56 1017.8
20260507183017 10 327 9.7 0.0 0.00 0.00 0.00 54 1017.7
20260507181515 11 298 11.3 0.0 0.00 0.00 0.00 55 1017.6
20260507180018 11 351 9.7 0.0 0.00 0.00 0.00 55 1017.4
20260507174522 11 328 9.7 0.0 0.00 0.00 0.00 54 1017.5
20260507173031 11 315 9.7 0.0 0.00 0.00 0.00 55 1017.3
20260507171521 11 296 11.3 0.0 0.00 0.00 0.00 55 1017.1
20260507170014 12 315 11.3 0.0 0.00 0.00 0.00 53 1017.0
20260507164516 12 313 12.9 0.0 0.00 0.00 0.00 54 1017.0
20260507163011 12 294 12.9 0.0 0.00 0.00 0.00 55 1017.1
20260507161512 12 327 14.5 0.0 0.00 0.00 0.00 55 1017.1
20260507160010 12 326 14.5 0.0 0.00 0.00 0.00 57 1017.0
20260507154509 12 355 11.3 0.0 0.00 0.00 0.00 58 1017.2
20260507153008 13 355 12.9 0.0 0.00 0.00 0.00 55 1017.1
20260507151508 13 351 14.5 0.0 0.00 0.00 0.00 54 1017.0
20260507150007 13 279 14.5 0.0 0.00 0.00 0.00 52 1017.0
20260507144506 13 313 16.1 0.0 0.00 0.00 0.00 52 1017.0
20260507143007 13 315 17.7 0.0 0.00 0.00 0.00 52 1016.8
20260507141505 14 325 16.1 0.0 0.00 0.00 0.00 52 1016.8
20260507140005 14 275 14.5 0.0 0.00 0.00 0.00 55 1016.9
20260507134503 14 360 14.5 0.0 0.00 0.00 0.00 57 1017.0
20260507133002 14 295 14.5 0.0 0.00 0.00 0.00 59 1016.8
20260507131501 14 360 16.1 0.0 0.00 0.00 0.00 60 1016.8
20260507130108 15 312 14.5 0.0 0.00 0.00 0.00 56 1016.8
20260507124607 15 302 14.5 0.0 0.00 0.00 0.00 56 1016.6
20260507123059 15 305 16.1 0.0 0.00 0.00 0.00 57 1016.6
20260507121559 15 272 12.9 0.0 0.00 0.00 0.00 57 1016.5
20260507120056 15 290 16.1 0.0 0.00 0.00 0.00 55 1016.6
20260507114609 15 360 17.7 0.0 0.00 0.00 0.00 56 1016.6
20260507113054 15 360 16.1 0.0 0.00 0.00 0.00 52 1016.8
20260507111555 16 323 14.5 0.0 0.00 0.00 0.00 49 1016.7
20260507110051 16 263 14.5 0.0 0.00 0.00 0.00 48 1016.6
20260507104552 17 309 14.5 0.0 0.00 0.00 0.00 45 1016.5
20260507103055 18 277 12.9 0.0 0.00 0.00 0.00 42 1016.4
20260507101549 18 317 11.3 0.0 0.00 0.00 0.00 41 1016.4
20260507100050 18 271 9.7 0.0 0.00 0.00 0.00 43 1016.3
20260507094556 18 265 9.7 0.0 0.00 0.00 0.00 44 1016.2
20260507093045 18 280 11.3 0.0 0.00 0.00 0.00 43 1016.1
20260507091544 18 271 11.3 0.0 0.00 0.00 0.00 41 1016.0
20260507090044 18 246 9.7 0.0 0.00 0.00 0.00 43 1016.0
20260507084543 18 254 9.7 0.0 0.00 0.00 0.00 43 1016.0
20260507083041 18 276 8.0 0.0 0.00 0.00 0.00 43 1015.8
20260507081542 18 251 8.0 0.0 0.00 0.00 0.00 39 1015.7
20260507080038 18 292 8.0 0.0 0.00 0.00 0.00 40 1015.6
20260507074535 18 302 8.0 0.0 0.00 0.00 0.00 44 1015.5
20260507073033 17 286 4.8 0.0 0.00 0.00 0.00 44 1015.3
20260507071529 17 349 3.2 0.0 0.00 0.00 0.00 47 1015.2
20260507070038 16 305 4.8 0.0 0.00 0.00 0.00 50 1015.3
20260507064520 15 316 3.2 0.0 0.00 0.00 0.00 55 1015.1
20260507063017 13 238 1.6 0.0 0.00 0.00 0.00 58 1014.9
20260507061513 11 15 1.6 0.0 0.00 0.00 0.00 68 1014.9
20260507060015 8 31 1.6 0.0 0.00 0.00 0.00 71 1014.9
20260507054504 7 40 1.6 0.0 0.00 0.00 0.00 73 1014.8
20260507053126 6 61 1.6 0.0 0.00 0.00 0.00 74 1014.7
20260507051559 6 38 3.2 0.0 0.00 0.00 0.00 77 1014.5
20260507050057 5 44 3.2 0.0 0.00 0.00 0.00 79 1014.4
20260507044617 5 38 4.8 0.0 0.00 0.00 0.00 76 1014.2
20260507043055 -17 0.0 0.0 0.00 0.00 0.00 1014.1
20260507041551 -17 0.0 0.0 0.00 0.00 0.00 1014.1
20260507040047 -17 0.0 0.0 0.00 0.00 0.00 1014.1
20260507034544 -17 0.0 0.0 0.00 0.00 0.00 1013.8
20260507033047 -17 0.0 0.0 0.00 0.00 0.00 1013.9
20260507031545 -17 0.0 0.0 0.00 0.00 0.00 1013.9
20260507030025 -17 0.0 0.0 0.00 0.00 0.00 1013.9
20260507024524 -17 0.0 0.0 0.00 0.00 0.00 1013.9
20260507023017 -17 0.0 0.0 0.00 0.00 0.00 1013.6
20260507021515 3 22 4.8 0.0 0.00 0.00 0.00 83 1013.6
20260507020013 3 30 3.2 0.0 0.00 0.00 0.00 82 1013.5
20260507014510 4 29 3.2 0.0 0.00 0.00 0.00 82 1013.5
20260507013008 4 28 4.8 0.0 0.00 0.00 0.00 83 1013.4
20260507011518 4 30 3.2 0.0 0.00 0.00 0.00 83 1013.3
20260507010004 4 31 3.2 0.0 0.00 0.00 0.00 83 1013.2
20260507004501 5 34 3.2 0.0 0.00 0.00 0.00 81 1013.0
20260507003108 5 28 0.0 0.0 0.00 0.00 0.00 80 1013.1
20260507001559 6 24 3.2 0.0 0.00 0.00 0.00 78 1013.0
20260507000052 6 16 4.8 0.0 0.00 0.00 0.00 78 1012.9
20260506234600 6 19 4.8 0.0 0.00 0.00 0.00 78 1012.7
20260506233052 6 349 6.4 0.0 0.00 0.00 0.00 78 1012.8
20260506231553 6 325 4.8 0.0 0.00 0.00 0.00 76 1012.8
20260506230042 6 318 4.8 0.0 0.00 0.00 0.00 74 1012.6
20260506224542 6 329 4.8 0.0 0.00 0.00 0.00 73 1012.5
20260506223042 6 337 4.8 0.0 0.00 0.00 0.00 72 1012.4
20260506221541 7 5 3.2 0.0 0.00 0.00 0.00 70 1012.5
20260506220039 7 15 4.8 0.0 0.00 0.00 0.00 68 1012.2
20260506214538 7 355 6.4 0.0 0.00 0.00 0.00 67 1012.2
20260506213040 7 326 4.8 0.0 0.00 0.00 0.00 68 1012.0
20260506211538 7 325 6.4 0.0 0.00 0.00 0.00 71 1012.0
20260506210037 7 317 6.4 0.0 0.00 0.00 0.00 73 1011.9
20260506204540 7 338 4.8 0.0 0.00 0.00 0.00 73 1011.8
20260506203040 7 338 4.8 0.0 0.00 0.00 0.00 72 1011.7
20260506201539 8 327 6.4 0.0 0.00 0.00 0.00 69 1011.7
20260506200039 8 333 6.4 0.0 0.00 0.00 0.00 68 1011.6